Regional Weather Roundup
Issued by NWS

Home | Current Version | Previous Version | Text Only | Print | Product List | Glossary On
Versions: 1 2 3 4 5 6 7 8 9 10 11 12 13 14 15 16 17 18 19 20 21 22 23 24 25 26 27 28 29 30 31 32 33 34 35 36 37 38 39 40 41 42 43 44 45 46 47 48 49 50
000
ASUS44 KLUB 050410
RWRTX
WEST TEXAS WEATHER ROUNDUP
NATIONAL WEATHER SERVICE LUBBOCK TX
1100 PM CDT MON MAY 04 2015

NOTE: "FAIR" INDICATES FEW OR NO CLOUDS BELOW 12,000 FEET WITH NO
SIGNIFICANT WEATHER AND/OR OBSTRUCTIONS TO VISIBILITY.

TXZ004-006>008-010-012-014-016-OKZ002-050500-
TEXAS PANHANDLE/OKLAHOMA PANHANDLE

CITY           SKY/WX    TMP DP  RH WIND       PRES   REMARKS
AMARILLO       CLOUDY    59  58  96 E9        30.02R
BORGER         LGT RAIN  63  57  81 S16G26    29.98F
CANADIAN       CLOUDY    69  59  71 SE14G20   29.98R
DALHART        CLOUDY    57  52  83 E7        30.02R
DUMAS          DRIZZLE   58  55  88 S15G24    29.99F
GUYMON         CLOUDY    61  57  87 N7        29.99R
HEREFORD       CLOUDY    59  56  91 MISG      30.04R
PAMPA          LGT RAIN  59  56  92 S14G20    30.02S
PERRYTON       CLOUDY    65  59  79 S10G16    30.00R
$$

TXZ026-029-035-045-048-050500-
SOUTHERN PANHANDLE/SOUTH PLAINS/ROLLING PLAINS

CITY           SKY/WX    TMP DP  RH WIND       PRES   REMARKS
CHILDRESS      CLOUDY    71  59  65 SE15      29.97S
SEMINOLE       LGT RAIN  59  57  94 N5        29.94S
LUBBOCK        LGT RAIN  59  57  93 NE18      29.94F
PLAINVIEW      RAIN      57  54  89 SE15      30.01S
SNYDER         CLOUDY    67  62  84 SE18G29   29.92R
$$

TXZ052-054-060>062-072-078-127-140-154-169-050500-
PERMIAN BASIN/CONCHO VALLEY/BIG COUNTRY/EDWARDS PLATEAU

CITY           SKY/WX    TMP DP  RH WIND       PRES   REMARKS
ABILENE        CLOUDY    71  60  68 SE20      29.94F
BIG SPRING     CLOUDY    74  62  65 SE30      29.91R
BRADY          CLEAR     70  59  68 SE12      29.99S
BROWNWOOD      CLOUDY    72  59  64 SE15G22   29.99S
JUNCTION       CLOUDY    72  59  63 SE16G26   29.98S
MIDLAND        LGT RAIN  69  62  78 S16G32    29.89R
ODESSA         LGT RAIN  69  62  78 S14G23    29.91R
SAN ANGELO     CLOUDY    74  60  61 SE23G32   29.93R
SONORA         CLOUDY    72  61  68 SE17G25   29.99S
SWEETWATER     CLOUDY    70  59  69 SE17      29.95F
WINK           CLOUDY    67  61  81 SE20G31   29.84F THUNDER
$$

TXZ055-058-074-075-080-082-050500-
FAR WEST/SOUTHWEST MOUNTAINS/TRANS PECOS

CITY           SKY/WX    TMP DP  RH WIND       PRES   REMARKS
ALPINE         MOCLDY    65  58  78 CALM      29.95R
DRYDEN           N/A     72  64  76 E26G36    29.86R
EL PASO        CLOUDY    70  50  49 N8        29.85R
FORT STOCKTON  CLOUDY    67  61  81 SE25G37   29.83S
GUADALUPE PASS CLOUDY    58  55  90 NE36G45   29.91F
MARFA          CLEAR     61  55  82 N6        29.93R
PECOS          PTCLDY    68  60  75 E14       29.84S
PRESIDIO       FAIR      81  56  41 MISG      29.74R
$$

TXZ014-016-019-021>030-083-050500
TEXAS TECH WEST TEXAS MESONET/TEXAS PANHANDLE/NORTHERN SOUTH PLAINS

CITY           SKY/WX    TMP DP  RH WIND       PRES   REMARKS
ABERNATHY 5ENE RAIN      57  56  95 NE10      29.99F
AMARILLO 9NNE    N/A     59  58  94 SE9       30.00S
AMARILLO 7SSE    N/A     59  56  92 SE7       30.03R
AMHERST 1NE      N/A     56  53  91 NE8       29.99S
BOOTLEG 11WNW  LGT RAIN  54  53  95 SE18      30.05S
CANADIAN 6E      N/A     66  58  73 SE12      29.99R
CAPROCK CYN SP   N/A     63  60  88 S17       30.00R
CHILDRESS 2NNE   N/A     70  58  67 SE13      29.97R
CLARENDON 2WSW   N/A     63  60  89 E7        30.01R
CLAUDE 12SW      N/A     59  58  96 S6        30.02R
DIMMITT 2NE      N/A     55  52  90 SE10      30.02F
FLOYDADA 2NNE  LGT RAIN  58  58  98 SW3       30.02F
FRIONA 2NE     LGT RAIN  56  53  92 S9        30.06R
GOODLETT 3W      N/A     70  59  67 E8        29.96S
HART 3N          N/A     57  52  85 SE22      30.00F
HEREFORD 2NW     N/A     57  52  82 S8        30.04R
MCLEAN 1E        N/A     66  57  71 S12       30.00R
MEMPHIS 1NE      N/A     64  61  90 SE6       29.99R
MULESHOE 2SSW  RAIN      55  53  94 E10       30.02R
OLTON 6S         N/A     57  52  85 E24       29.97F
PALO DURO SP     N/A     59  57  92 SE2       30.03R
PAMPA 2E         N/A     60  57  89 S13       30.02S
PLAINVIEW 1S   LGT RAIN  57  55  92 SE12      30.01F
SILVERTON 7ESE LGT RAIN  61  58  90 S17       30.00R
TULIA 2ENE       N/A     58  54  85 S16       30.00S
TURKEY 2WSW    LGT RAIN  65  62  88 S15       29.98R
UMBARGER 3NNE    N/A     57  54  87 S7        30.03S
$$

TXZ033>036-039>041-045>048-050500
TEXAS TECH WEST TEXAS MESONET/SOUTH PLAINS

CITY           SKY/WX    TMP DP  RH WIND       PRES   REMARKS
AIKEN 3WSW       N/A     57  56  97 S5        30.02F
ANDREWS 2NE      N/A     70  58  66 S14G23    29.91R
ANTON 6SSW       N/A     58  55  89 NE18      29.95R
BROWNFIELD 2S  RAIN      57  55  92 E15       29.97R
DENVR CTY 7WNW   N/A     57  55  94 E13       29.97R
GAIL 2ESE        N/A     65  61  86 SE10      29.89F
LAMESA 2SE     RAIN      59  58  97 E9        29.93S
LEVELLAND 4S   RAIN      56  53  90 NE12      29.99R
LUBBOCK 3WNW     N/A     60  55  84 NE20G29   29.94R
MORTON 1ENE    LGT RAIN  55  54  95 NE9       30.00R
ODONNELL 1N      N/A     59  57  91 NE16      29.94R
PLAINS 3N        N/A     58  55  91 E9        29.99R
RALLS 1SE      RAIN      59  58  98 N6        30.02R
REESE CENTER     N/A     58  54  85 E26G37    29.92R
SEAGRAVES 1SW    N/A     56  56  98 E13       29.96R
SEMINOLE 2NNE  RAIN      59  57  95 NW14      29.94R
SLATON 2NE     LGT RAIN  58  57  97 NE18      29.95F
SNYDER 3E        N/A     65  62  91 SE21      29.90S
SUNDOWN 8SW    LGT RAIN  56  54  93 E9        29.99R
TAHOKA 3NNE    LGT RAIN  59  58  95 NE20      29.94S
WOLFFORTH 6SSW   N/A     60  59  97 NE24      29.95R
$$

TXZ031-032-036>038-042>044-050500-
TEXAS TECH WEST TEXAS MESONET/ROLLING PLAINS

CITY           SKY/WX    TMP DP  RH WIND       PRES   REMARKS
ASPERMONT 3NE    N/A     70  60  69 SE6       29.95R
FLUVANNA 3WNW    N/A     65  60  84 SE15      29.93R
GRAHAM 5SSW    RAIN      60  58  95 N15       29.95F
GUTHRIE 10WSW    N/A     66  61  84 E8        29.94F
HASKELL 1NW      N/A     72  56  58 E9        29.94F
JAYTON 1SSE    LGT RAIN  67  61  83 E10       29.94S
KNOX CITY 3NW    N/A     73  57  57 E9        29.95S
LK A HENRY 1NW LGT RAIN  64  63  94 NE10      29.94R
NORTHFIELD 1S    N/A     66  62  88 S7        29.98R
ODELL 4ENE       N/A     70  59  68 SE13      29.98S
PADUCAH 10SW     N/A     67  61  80 SE7       29.96S
POST 1NE       RAIN      61  59  94 NW14      29.94F
RRING SPRGS 3N LGT RAIN  60  60  98 W2        30.00S
SEYMOUR 3NW      N/A     72  58  62 E13       29.96F
SPUR 1W          N/A     64  61  90 E5        29.96S
WEINERT 2NNE     N/A     72  59  64 SE14      29.95F
WHITE RVR 6NE  RAIN      62  61  96 N7        29.99R
$$

TXZ052-054-060>062-072-078-127-140-154-169-050500-
TEXAS TECH WEST TEXAS MESONET/PERMIAN BASIN/
CONCHO VALLEY/BIG COUNTRY/EDWARDS PLATEAU

CITY           SKY/WX    TMP DP  RH WIND       PRES   REMARKS
COYANOSA 2N      N/A     66  62  86 NE8       29.86R
JUNCTION 1SSW    N/A     71  60  67 SE12      29.99R
MERTZON 3NNE     N/A     72  60  67 SE17      29.95R
SAN ANGELO 7NW   N/A     72  59  64 SE16G28   29.94S
STRLNG CT 4WSW   N/A     69  62  78 SE16      29.93R
ST LAWRNCE 5SW   N/A     70  60  70 SE29G39   29.90R
SWEETWATR 11SW   N/A     67  60  79 SE22      29.93F
WALL 1E          N/A     72  59  64 SE25      29.94R
$$

TXZ055-058-074-075-080-082-050500-
TEXAS TECH WEST TEXAS MESONET/FAR WEST/SOUTHWEST MOUNTAINS/TRANS PECOS

CITY           SKY/WX    TMP DP  RH WIND       PRES   REMARKS
PRSMN GAP BBNP   N/A     69  63  82 N17       29.83R
$$



USA.gov is the U.S. government's official web portal to all federal, state and local government web resources and services.